This is the latest recevied weather packets stored in our database for station/object W0VI. If no packets are shown the sender has not sent any weather packets the latest 10 day(s).
| Time | Temp. | Humidity | Pressure | Rain* | Wind** | Luminosity | Snow |
|---|---|---|---|---|---|---|---|
| 1787689705 | 26.11° C | 74% | 1013.1 hPa | 0 mm | - | 212 W/m² | - |
| 1787689400 | 26.67° C | 72% | 1013.2 hPa | 0 mm | - | 239 W/m² | - |
| 1787689094 | 25.56° C | 73% | 1013.2 hPa | 0 mm | - | 307 W/m² | - |
| 1787688790 | 25.56° C | 73% | 1013.3 hPa | 0 mm | - | 482 W/m² | - |
| 1787688486 | 25.56° C | 75% | 1013.4 hPa | 0 mm | - | 560 W/m² | - |
| 1787688179 | 25.56° C | 75% | 1013.6 hPa | 0 mm | - | 421 W/m² | - |
| 1787687876 | 25.56° C | 74% | 1013.6 hPa | 0 mm | - | 373 W/m² | - |
| 1787687575 | 25.56° C | 74% | 1013.6 hPa | 0 mm | - | 348 W/m² | - |
| 1787687271 | 25° C | 76% | 1013.6 hPa | 0 mm | - | 262 W/m² | - |
| 1787686967 | 24.44° C | 75% | 1013.9 hPa | 0 mm | - | 216 W/m² | - |
| 1787686658 | 24.44° C | 76% | 1013.9 hPa | 0 mm | - | 242 W/m² | - |
| 1787686358 | 24.44° C | 75% | 1014 hPa | 0 mm | - | 230 W/m² | - |
| 1787686053 | 25° C | 75% | 1014 hPa | 0 mm | - | 253 W/m² | - |
| 1787685749 | 24.44° C | 75% | 1014.1 hPa | 0 mm | - | 208 W/m² | - |
| 1787685443 | 24.44° C | 75% | 1014 hPa | 0 mm | - | 226 W/m² | - |
| 1787685143 | 25° C | 74% | 1013.9 hPa | 0 mm | - | 298 W/m² | - |
| 1787684839 | 25° C | 73% | 1014.1 hPa | 0 mm | - | 325 W/m² | - |
| 1787684538 | 25° C | 73% | 1014 hPa | 0 mm | - | 719 W/m² | - |
| 1787684233 | 25° C | 74% | 1014 hPa | 0 mm | - | 367 W/m² | - |
| 1787683923 | 25° C | 73% | 1013.9 hPa | 0 mm | - | 271 W/m² | - |
| 1787683617 | 25° C | 73% | 1014.1 hPa | 0 mm | - | 342 W/m² | - |
| 1787683312 | 25° C | 72% | 1014.3 hPa | 0 mm | - | 255 W/m² | - |
| 1787683009 | 25° C | 72% | 1013.9 hPa | 0 mm | - | 307 W/m² | - |
| 1787682704 | 25° C | 71% | 1014.2 hPa | 0 mm | - | 697 W/m² | - |
| 1787682400 | 25° C | 71% | 1014 hPa | 0 mm | - | 372 W/m² | - |
* Rain latest hour (hover to see other rain measurements)
** Current wind speed in m/s (hover to see current wind gust speed)